Location: Amherst
(42.5000°N, 72.5000°W)
Time: 05:31:24
(UTC-04:00)

ISS - Pass Details

Date: 17 May 2018
Orbit: 402 x 407 km, 51.6° (Epoch: 27 May)

Event Time Altitude Azimuth Distance (km) Brightness Sun altitude
Rises 04:24:46 0° 307° (NW) 2,319 -0.1 -10.3°
Reaches altitude 10° 04:27:00 10° 318° (NW) 1,458 -1.0 -10.0°
Maximum altitude 04:29:57 30° 22° (NNE) 751 -1.8 -9.6°
Drops below altitude 10° 04:32:53 10° 87° (E) 1,454 -0.1 -9.1°
Sets 04:35:06 0° 98° (E) 2,312 0.8 -8.8°
